Weather History for Peachtree City, GA

Change the Weather History Date:

Sunday, June 16, 2013

  Actual Average Record
Temperature  
Mean Temperature 74 °F 76 °F  
Max Temperature 86 °F 88 °F 91 °F (2008)
Min Temperature 62 °F 65 °F 52 °F (2002)
Degree Days  
Heating Degree Days 0 0  
Month to date heating degree days 0 0  
Since 1 June heating degree days 0 0  
Since 1 July heating degree days 242 2950  
Cooling Degree Days 9 11  
Month to date cooling degree days 183 155  
Year to date cooling degree days 329 345  
Since 1 June cooling degree days 183 155  
Growing Degree Days 24 (Base 50)    
Moisture  
Dew Point 68 °F    
Average Humidity 79    
Maximum Humidity 100    
Minimum Humidity 57    
Precipitation  
Precipitation T in 0.11 in 0.56 in (1999)
Month to date precipitation 3.85 1.95  
Year to date precipitation 12.62 23.47  
Snow  
Snow 0.00 in - - ()
Month to date snowfall 0.0  
Since 1 June snowfall 0.0  
Since 1 July snowfall 0.0  
Snow Depth 0.00 in    
Sea Level Pressure  
Sea Level Pressure 30.10 in    
Wind  
Wind Speed 2 mph (South)    
Max Wind Speed 13 mph    
Max Gust Speed 18 mph    
Visibility 5 miles    
Events      
T = Trace of Precipitation, MM = Missing Value Source: NWS Daily Summary

Daily Weather History Graph

Daily Weather History Graph

Search for Another Location

Airport:

Trip Planner

Search our weather history database for the weather conditions in past years. The results will help you decide how hot, cold, wet, or windy it might be!

Date:

Astronomy

Jun. 16, 2013 Rise Set
Actual Time 6:28 AM EDT 8:49 PM EDT
Civil Twilight 5:59 AM EDT 9:18 PM EDT
Nautical Twilight 5:24 AM EDT 9:54 PM EDT
Astronomical Twilight 4:45 AM EDT 10:32 PM EDT
Moon 1:42 PM EDT (6/16) 1:13 AM EDT (6/16)
Length of Visible Light 15h 19m
Length of Day
14h 21m
Waxing Crescent, 49% of the Moon is Illuminated
Jun 16
Waxing Crescent
Jun 16
First Quarter
Jun 23
Full
Jun 30
Last Quarter
Jul 8
New

Hourly Weather History & Observations

Time (EDT) Temp. Heat Index Dew Point Humidity Pressure Visibility Wind Dir Wind Speed Gust Speed Precip Events Conditions
12:53 AM 64.9 °F - 63.0 °F 93% 30.12 in 3.0 mi Calm Calm - N/A   Clear
1:53 AM 64.0 °F - 63.0 °F 96% 30.11 in 4.0 mi Calm Calm - N/A   Clear
2:53 AM 63.0 °F - 62.1 °F 97% 30.09 in 3.0 mi Calm Calm - N/A   Clear
3:53 AM 62.1 °F - 61.0 °F 96% 30.09 in 3.0 mi Calm Calm - N/A   Clear
4:53 AM 63.0 °F - 61.0 °F 93% 30.10 in 3.0 mi Calm Calm - N/A   Clear
5:53 AM 62.1 °F - 61.0 °F 96% 30.12 in 3.0 mi Calm Calm - N/A   Clear
6:39 AM 62.6 °F - 60.8 °F 94% 30.14 in 2.0 mi Calm Calm - N/A   Clear
6:53 AM 62.1 °F - 61.0 °F 96% 30.13 in 2.5 mi Calm Calm - N/A   Clear
7:30 AM 64.4 °F - 62.6 °F 94% 30.15 in 3.0 mi Calm Calm - N/A   Clear
7:53 AM 66.0 °F - 64.0 °F 93% 30.14 in 4.0 mi Calm Calm - N/A   Clear
8:53 AM 72.0 °F - 66.9 °F 84% 30.15 in 6.0 mi Calm Calm - N/A   Haze
9:53 AM 73.9 °F - 66.9 °F 79% 30.16 in 7.0 mi Variable 3.5 mph - N/A   Mostly Cloudy
10:30 AM 75.2 °F - 68.0 °F 78% 30.17 in 7.0 mi South 3.5 mph - N/A   Mostly Cloudy
10:53 AM 77.0 °F - 68.0 °F 74% 30.15 in 7.0 mi Variable 4.6 mph - N/A   Mostly Cloudy
11:46 AM 80.6 °F 83.9 °F 69.8 °F 70% 30.15 in 7.0 mi Calm Calm - N/A   Mostly Cloudy
11:53 AM 80.1 °F 83.2 °F 70.0 °F 71% 30.14 in 7.0 mi Calm Calm - N/A   Scattered Clouds
12:02 PM 80.6 °F 83.9 °F 69.8 °F 70% 30.15 in 7.0 mi Calm Calm - N/A   Mostly Cloudy
12:38 PM 80.6 °F 84.6 °F 71.6 °F 74% 30.14 in 6.0 mi SW 5.8 mph - N/A   Haze
12:53 PM 80.1 °F 83.6 °F 71.1 °F 74% 30.12 in 6.0 mi WSW 4.6 mph - N/A   Haze
1:53 PM 82.9 °F 87.5 °F 71.1 °F 67% 30.10 in 6.0 mi Calm Calm - N/A   Haze
2:53 PM 84.0 °F 89.6 °F 72.0 °F 67% 30.08 in 6.0 mi SE 6.9 mph - N/A   Haze
3:53 PM 84.0 °F 89.0 °F 71.1 °F 65% 30.06 in 7.0 mi SE 8.1 mph - 0.00 in   Scattered Clouds
4:53 PM 86.0 °F 90.1 °F 69.1 °F 57% 30.05 in 7.0 mi SSE 4.6 mph - N/A   Mostly Cloudy
5:53 PM 84.9 °F 88.8 °F 69.1 °F 59% 30.04 in 6.0 mi Calm Calm - N/A   Haze
6:53 PM 84.9 °F 90.1 °F 71.1 °F 63% 30.03 in 6.0 mi SSE 6.9 mph - N/A   Haze
7:53 PM 82.9 °F 87.5 °F 71.1 °F 67% 30.03 in 6.0 mi SSE 4.6 mph - N/A   Haze
8:53 PM 77.0 °F - 73.0 °F 88% 30.04 in 5.0 mi Calm Calm - N/A   Clear
9:53 PM 75.9 °F - 73.0 °F 91% 30.05 in 6.0 mi Calm Calm - N/A   Clear
10:53 PM 73.9 °F - 72.0 °F 93% 30.06 in 4.0 mi Calm Calm - N/A   Mostly Cloudy
11:53 PM 73.9 °F - 72.0 °F 93% 30.06 in 5.0 mi Calm Calm - N/A   Partly Cloudy